Overview Statistics Trail Chart Weather Telemetry Raw packets
 

This is the latest recevied weather packets stored in our database for station/object KD7CIH. If no packets are shown the sender has not sent any weather packets the latest 10 day(s).

<< 45 46 47 48 49 50 51 >>
Time Temp. Humidity Pressure Rain* Wind** Luminosity Snow
1788385543 23.89° C 28% 1011.2 hPa 0 mm - - -
1788385114 23.89° C 30% 1011.2 hPa 0 mm - - -
1788384943 23.89° C 29% 1011.4 hPa 0 mm - - -
1788384644 23.89° C 29% 1011.3 hPa 0 mm - - -
1788384345 23.89° C 30% 1011.3 hPa 0 mm - - -
1788383915 23.89° C 30% 1011.2 hPa 0 mm - - -
1788383615 23.89° C 30% 1011.4 hPa 0 mm - - -
1788383315 23.89° C 30% 1011.6 hPa 0 mm - - -
1788383016 23.33° C 32% 1011.6 hPa 0 mm - - -
1788382717 22.78° C 33% 1011.7 hPa 0 mm - - -
1788382415 22.78° C 34% 1011.7 hPa 0 mm - - -
1788382114 22.78° C 31% 1011.8 hPa 0 mm - - -
1788381816 22.78° C 30% 1011.8 hPa 0 mm - - -
1788381515 22.78° C 30% 1011.8 hPa 0 mm - - -
1788381215 22.78° C 30% 1011.8 hPa 0 mm - - -
1788380914 22.78° C 31% 1011.8 hPa 0 mm - - -
1788380616 22.78° C 29% 1011.8 hPa 0 mm - - -
1788380315 22.78° C 30% 1011.9 hPa 0 mm - - -
1788380142 22.78° C 31% 1011.8 hPa 0 mm - - -
1788379716 23.33° C 30% 1011.9 hPa 0 mm - - -
1788379415 22.78° C 32% 1012 hPa 0 mm - - -
1788379241 22.78° C 31% 1012 hPa 0 mm - - -
1788378808 22.22° C 33% 1012 hPa 0 mm - - -
1788378501 22.22° C 34% 1012.2 hPa 0 mm - - -
1788378197 21.67° C 35% 1012.2 hPa 0 mm - - -

* Rain latest hour (hover to see other rain measurements)
** Current wind speed in m/s (hover to see current wind gust speed)